カタログに戻る

STARLINK-37860

運用中通信SSO
NORAD 69554·PAYLOAD·🇺🇸 United States

打ち上げ Jun 15, 2026 から Vandenberg Space Force Base

Loading…

次のパス (今後24時間)

TLE

最新Source: CelesTrak SupGP

元期: Sep 14, 2026, 23:31 UTC

1 69554C 26135J   26257.98034722  .00064251  00000+0  19947-2 0  2579
2 69554  97.2834 285.7308 0001623  88.7512 254.3960 15.33402801    17

AllMySatでSTARLINK-37860をリアルタイム追跡

Download on the App Store